Wind_Speed
59 59 59 59 60 61 63 65 66 64 63 65 66 67 68 69 70 71 71 71 70 69 69 69 69 69 69 69 70 70 70 70 70 70 70 71 72 72 72 72 72 71 71 71 70 69 68 66 66 65 65 64 64 64 64 65 64 64 62 62 62 62 63 63 63 63 63 63 63 63 62 62 62 61 61 61 60 60 59 59 59 59 60 60 60
62 62 62 62 62 63 64 66 68 66 64 65 67 69 70 71 72 73 72 72 72 71 70 70 70 71 71 71 72 72 72 71 70 69 69 69 69 70 70 71 72 72 72 72 71 71 69 67 67 67 67 67 66 66 66 66 66 65 63 62 62 63 63 64 64 63 63 63 64 64 63 63 63 62 62 61 61 61 61 61 61 61 62 62 62
65 65 65 65 66 67 66 67 70 70 69 69 68 69 70 70 71 72 72 73 73 73 73 73 73 72 72 72 73 74 74 73 72 71 71 71 71 71 72 72 73 74 74 73 72 71 70 68 68 68 69 69 69 69 69 68 68 67 65 64 64 65 65 65 65 64 63 64 64 65 65 64 64 63 63 62 62 62 63 63 63 64 64 64 63
68 68 69 69 69 70 70 70 72 74 76 75 72 71 70 69 68 70 71 72 74 75 76 77 76 75 74 74 74 75 75 75 75 74 75 75 75 75 75 75 75 75 74 72 71 70 70 69 69 69 70 71 70 70 70 70 70 69 68 67 66 67 67 67 67 66 65 64 65 66 66 66 65 65 65 64 64 64 65 65 65 66 66 65 64
74 74 75 75 75 76 77 77 77 78 79 79 77 76 76 74 72 71 71 72 74 76 78 79 80 79 77 76 75 76 76 77 77 77 78 78 77 76 75 75 75 74 73 70 69 69 69 69 69 69 70 71 70 70 70 70 71 71 71 71 70 69 69 69 69 68 67 66 66 67 67 67 67 67 67 67 66 66 66 67 67 67 67 66 64
80 80 81 82 82 83 83 83 82 82 83 83 81 80 79 77 76 75 74 75 76 77 79 81 83 83 82 80 78 77 78 78 78 79 80 80 80 79 77 76 75 74 72 71 69 69 69 69 69 68 68 68 68 69 70 70 69 70 71 72 72 72 71 71 70 70 69 68 68 68 69 69 69 70 69 69 68 68 68 68 68 68 69 68 66
86 86 87 88 88 89 89 88 88 87 87 87 87 86 85 82 80 79 79 79 79 80 82 83 84 86 87 85 82 80 79 79 79 80 80 81 82 83 81 79 76 74 72 70 69 68 68 69 69 69 68 67 67 68 69 70 69 69 69 70 71 71 72 72 72 72 71 71 70 70 70 70 70 71 71 71 70 70 70 70 70 70 70 69 68
87 88 89 90 91 91 91 90 90 89 88 87 87 88 89 88 85 82 82 82 82 83 84 86 87 88 89 89 87 85 82 81 81 81 81 82 83 85 85 83 79 76 72 69 67 66 67 68 69 69 69 68 68 68 68 69 69 69 69 69 70 70 71 71 71 71 72 73 73 72 72 71 71 71 70 71 71 71 71 71 71 71 70 69 68
88 88 88 89 90 91 91 90 89 88 87 86 85 85 86 88 87 86 84 84 84 84 85 88 90 91 91 91 91 89 86 85 84 83 82 83 84 86 87 86 83 79 75 72 70 70 70 71 71 70 70 70 70 69 68 67 67 67 67 66 66 67 67 66 65 66 68 70 72 73 73 73 72 72 71 71 71 72 71 71 71 70 69 68 68
90 88 87 87 88 89 90 91 92 92 91 89 88 87 86 86 87 87 86 85 86 86 87 88 91 93 94 93 93 92 89 86 86 87 86 85 86 87 88 87 86 83 79 76 76 75 75 75 75 74 73 72 72 70 68 65 64 64 64 64 63 62 62 61 61 61 62 64 66 70 72 73 73 72 71 70 71 71 71 71 71 70 70 69 68
89 89 88 88 88 88 88 89 90 91 91 90 89 89 88 87 87 88 87 87 86 86 87 89 91 94 96 95 94 94 91 88 87 88 89 88 88 89 89 89 87 85 81 79 78 78 78 79 79 79 78 77 74 72 69 66 65 64 63 63 62 62 62 61 61 61 61 61 63 65 67 70 72 72 71 70 71 71 71 72 72 72 71 70 70
92 93 93 93 93 93 92 91 90 90 89 89 88 88 89 90 90 90 91 91 91 89 89 89 91 93 96 97 96 95 93 88 86 86 88 90 91 91 91 91 90 87 84 81 80 80 81 82 82 82 82 81 79 76 72 69 68 67 66 66 66 66 66 66 64 63 62 61 62 63 65 67 70 72 72 72 72 72 72 73 73 73 73 72 71
97 98 98 99 99 99 98 97 95 94 93 92 90 88 87 88 90 91 92 93 94 94 93 92 92 93 94 96 97 97 95 91 87 85 86 88 91 93 93 93 92 90 87 84 82 82 83 84 84 84 84 85 85 82 78 75 74 74 72 71 71 71 70 69 67 65 64 63 63 63 64 67 70 72 73 74 73 73 73 74 74 75 74 73 73
103 103 104 105 105 104 102 101 100 99 98 97 94 91 87 86 86 87 89 91 94 95 95 94 93 93 93 93 95 96 96 94 89 86 85 85 87 91 93 94 93 91 89 86 85 84 85 85 85 86 87 88 88 86 83 81 81 80 78 75 73 72 70 69 67 66 66 65 64 64 65 67 70 71 73 74 74 74 75 75 76 76 76 75 75
106 106 107 107 107 106 104 103 102 102 101 100 99 96 93 89 86 86 87 90 92 94 95 95 93 93 92 91 91 91 92 92 90 87 85 85 86 87 89 93 94 93 91 89 88 87 88 88 89 89 90 90 90 87 84 83 83 82 81 78 75 72 71 70 70 69 68 68 67 67 67 68 71 72 73 74 75 76 77 77 79 78 77 77 76
105 106 106 107 107 106 105 105 104 103 103 102 101 99 98 94 91 89 89 90 91 93 94 94 93 92 91 90 88 87 86 87 88 87 85 85 86 87 87 88 91 93 93 92 92 92 91 90 89 89 89 88 87 84 82 83 83 81 79 76 73 70 68 68 69 70 70 69 69 69 69 70 71 71 71 73 76 78 79 80 81 80 78 76 74
99 101 102 103 104 104 103 103 103 104 103 103 102 101 100 98 96 94 93 92 92 93 94 93 91 90 89 88 87 84 83 84 84 85 85 85 86 88 88 87 87 88 89 90 90 90 89 88 87 86 86 85 84 83 83 84 83 80 77 75 73 71 69 69 70 70 70 68 67 68 69 70 70 70 70 71 74 77 79 80 81 80 77 75 73
89 91 94 96 97 98 98 98 99 100 100 101 101 100 99 99 98 98 97 96 96 96 96 95 93 91 89 87 86 84 83 83 85 85 85 86 87 88 89 91 90 89 88 86 86 86 86 86 87 87 86 85 85 85 85 84 82 78 76 76 74 72 70 69 69 70 71 70 70 70 70 70 70 70 69 70 72 74 76 78 80 81 79 75 73
83 84 86 88 89 90 91 92 93 94 95 96 97 97 97 97 97 97 98 98 98 98 99 98 98 97 95 93 91 89 86 86 87 89 88 89 90 90 89 90 91 91 91 89 87 86 86 86 85 85 84 83 82 81 80 79 78 77 77 76 74 72 70 70 69 69 69 69 69 69 70 71 73 72 70 70 72 73 74 77 80 81 80 77 74
82 82 82 83 84 85 86 87 88 89 90 91 92 93 94 95 95 95 95 96 96 98 100 101 101 100 100 100 99 97 95 90 89 91 92 92 93 93 91 89 88 88 89 89 88 87 86 85 83 80 79 78 78 76 74 74 74 75 76 76 75 74 74 73 73 71 69 68 68 69 71 73 74 73 71 72 73 73 74 77 79 80 81 79 76
83 83 82 82 83 83 84 85 86 86 87 88 90 91 92 93 94 95 95 94 93 94 96 99 102 102 102 102 101 101 100 96 92 91 93 94 96 97 94 91 89 89 90 89 88 87 85 84 81 79 78 76 74 73 73 73 74 75 75 75 75 75 74 73 73 72 71 71 70 71 72 73 73 72 71 73 75 74 75 77 79 80 81 80 78
85 85 85 84 85 85 85 86 87 87 87 88 89 90 89 91 92 94 95 95 94 92 91 92 96 100 102 102 101 98 97 95 93 91 92 94 96 99 97 93 91 91 91 90 89 87 86 85 82 79 79 78 76 75 75 75 76 75 74 74 74 75 74 73 72 72 72 71 71 72 72 71 70 70 71 74 76 77 77 78 79 80 81 80 79
88 88 87 87 87 87 88 88 88 88 89 90 91 91 90 90 91 92 93 95 96 95 93 90 90 92 95 97 98 96 92 90 88 88 90 92 95 99 100 96 94 94 93 91 90 89 89 88 83 78 78 78 78 76 75 74 73 72 71 72 72 71 70 70 71 71 72 72 72 72 70 69 68 69 72 76 78 79 79 79 79 80 81 81 80
90 89 89 89 89 89 89 89 89 90 90 91 92 92 91 91 92 92 92 94 95 96 96 95 93 91 89 90 91 91 88 87 86 86 87 89 92 97 100 99 97 96 95 93 91 91 91 89 84 80 79 80 79 77 75 72 71 71 71 70 69 67 65 66 68 70 71 72 72 71 70 69 69 70 73 77 80 80 80 80 80 80 81 81 83
89 89 88 88 88 88 89 89 89 89 90 91 92 92 92 93 93 93 93 94 94 94 95 96 96 96 93 90 88 87 86 85 85 84 85 86 87 89 93 95 95 94 93 91 90 90 90 87 83 80 80 80 80 79 77 74 73 73 71 69 67 66 64 65 67 68 70 70 71 72 72 71 69 70 73 77 79 80 81 81 80 80 81 83 86
87 86 86 86 86 87 87 87 87 88 88 89 90 91 91 92 93 94 94 95 95 95 94 95 95 97 97 95 92 90 88 88 87 85 84 84 83 83 84 87 89 90 90 89 87 85 84 82 80 79 79 79 79 78 78 77 76 75 72 68 66 65 64 65 67 67 67 68 68 69 69 68 68 70 72 74 76 78 80 81 80 81 83 85 87
85 84 84 84 84 85 85 86 86 86 87 87 88 89 89 91 92 92 93 94 94 95 96 95 95 95 96 96 96 96 94 93 91 89 86 85 84 83 83 82 82 83 84 84 81 77 74 74 75 76 76 77 77 77 76 76 77 75 70 67 66 65 65 67 68 68 68 68 67 66 65 65 67 69 70 70 72 75 77 78 79 80 83 85 86
82 81 81 81 81 82 82 82 82 83 83 83 85 86 86 88 89 90 91 92 93 94 95 96 96 96 95 95 96 98 99 97 94 92 91 90 88 87 85 82 79 77 77 78 77 73 70 70 72 73 74 75 76 76 76 76 75 72 69 66 66 66 66 67 67 68 69 69 68 66 64 65 67 68 68 69 71 73 74 75 77 79 81 82 83
76 75 75 75 75 76 76 76 76 77 77 77 78 79 80 82 84 86 86 88 90 92 94 95 95 95 95 95 94 96 98 99 98 96 96 96 94 91 88 85 83 80 76 75 75 73 71 70 70 71 72 73 73 73 73 73 73 71 68 66 65 65 65 65 66 67 67 68 69 68 67 67 68 68 68 68 69 69 70 72 75 77 78 79 82
67 66 66 66 65 66 66 66 66 67 67 68 69 69 71 73 76 78 79 81 84 87 90 92 93 94 95 95 94 93 94 96 99 100 99 99 98 96 93 90 88 85 82 79 77 74 72 71 70 70 71 72 73 73 72 71 71 70 68 65 64 63 63 64 65 67 67 67 68 69 70 70 69 68 68 68 67 66 66 69 72 73 74 78 82
60 59 59 60 60 60 61 61 61 61 61 61 61 60 60 61 64 67 70 72 75 79 83 86 88 90 92 94 94 93 92 92 96 100 102 101 100 99 98 95 92 90 88 86 81 76 73 72 72 71 71 71 72 73 73 72 71 71 69 67 63 61 60 60 61 63 65 67 68 70 71 70 69 68 68 68 66 64 64 65 68 71 74 78 81
56 56 57 57 58 58 59 59 59 59 58 58 57 56 55 54 54 56 59 62 65 68 72 76 79 83 86 89 91 92 92 91 92 96 101 103 102 100 100 98 95 92 91 89 86 81 77 75 74 75 73 72 71 72 72 72 72 72 72 70 66 62 59 58 59 61 64 66 68 69 70 70 70 69 68 67 66 65 63 63 66 70 73 76 77
56 56 57 58 58 58 59 58 58 57 56 55 54 53 52 51 49 49 51 54 56 58 61 65 69 73 77 81 84 87 89 90 91 93 96 101 102 101 100 99 97 93 92 91 88 84 81 79 78 79 78 77 76 75 74 73 72 73 73 72 70 67 64 62 62 63 64 65 66 67 69 70 70 69 67 66 66 64 61 61 64 68 70 72 73
52 52 53 54 54 55 56 56 56 56 55 53 52 50 49 48 47 46 47 48 49 51 53 56 59 63 67 71 76 79 82 85 87 90 92 95 99 100 99 99 97 95 94 94 90 86 84 82 81 81 81 81 82 82 80 78 76 74 72 71 70 71 70 70 69 68 66 65 65 66 67 69 69 67 65 64 63 61 58 59 61 64 66 67 67
45 46 47 48 48 48 49 50 51 52 52 51 50 49 48 47 47 46 46 46 46 47 48 50 52 55 59 63 66 70 74 78 81 85 87 90 94 97 98 99 98 96 95 94 92 87 84 83 82 81 81 81 82 83 83 82 80 77 74 71 71 70 71 72 72 71 69 66 65 66 67 68 68 65 62 61 60 59 57 57 59 60 61 62 62
40 42 44 45 45 44 43 43 43 44 45 46 46 46 46 46 46 46 46 46 46 46 47 48 49 51 53 56 58 61 65 69 73 77 81 84 87 92 96 98 97 95 94 93 91 88 85 83 82 81 80 80 80 80 81 82 81 78 75 73 72 71 70 70 71 71 69 66 65 64 64 65 65 62 59 57 58 58 57 57 58 59 60 60 60
40 42 44 45 44 42 40 40 39 39 38 39 40 42 43 45 46 47 47 47 47 47 47 48 49 50 51 52 53 55 58 61 65 70 73 77 80 86 91 93 94 93 91 90 89 87 84 83 82 80 79 78 78 77 77 78 79 79 76 73 71 70 70 70 71 71 70 67 64 61 59 60 60 59 55 54 56 57 56 56 57 59 59 60 59
41 43 46 47 45 42 39 37 36 35 34 34 35 37 38 40 42 43 44 44 45 46 47 47 48 49 50 51 52 53 54 56 59 62 66 69 73 79 84 85 86 87 88 87 86 84 81 79 79 78 77 77 77 76 74 72 73 74 73 71 68 67 67 68 70 70 70 67 63 59 56 56 56 55 53 54 55 56 56 56 57 58 59 59 59
40 43 46 48 46 41 36 34 33 32 31 30 30 31 32 34 37 39 42 44 45 45 46 47 47 48 49 50 51 51 52 53 53 55 59 62 66 71 75 76 76 78 81 82 82 81 78 76 76 77 76 76 76 76 74 71 68 67 67 66 66 65 64 65 66 66 66 64 60 57 55 54 54 54 54 55 55 55 56 56 57 58 58 59 59
40 42 45 47 45 40 35 32 30 28 27 27 28 30 32 35 37 40 43 44 45 45 45 45 45 45 45 47 48 49 50 50 50 51 53 56 60 64 67 67 67 69 72 74 76 77 76 75 75 76 76 75 75 76 76 75 71 67 64 64 64 63 63 63 64 64 63 61 59 57 56 56 56 57 57 57 56 56 56 56 57 57 58 58 58
38 40 43 44 43 38 33 31 28 24 24 26 29 31 34 38 40 41 41 40 40 39 39 39 40 40 41 42 44 46 46 47 47 48 49 51 54 58 59 58 59 62 65 68 70 72 72 72 73 74 76 76 75 77 79 79 76 71 68 65 63 62 62 63 63 63 62 61 60 59 58 57 57 57 57 58 57 57 57 57 57 57 57 57 58
35 38 40 41 40 36 32 29 26 23 23 26 29 32 36 40 41 40 36 33 31 31 32 33 34 35 37 38 40 41 42 42 43 44 45 47 49 51 52 53 55 58 61 63 65 67 68 68 70 72 73 75 76 78 80 80 80 78 74 70 66 63 63 63 64 63 63 62 61 59 57 56 56 56 56 57 57 57 57 56 56 56 57 58 59
33 36 37 38 38 35 30 27 25 24 24 27 29 33 36 38 38 36 32 28 26 26 26 27 28 31 33 34 35 35 36 36 38 39 40 42 44 46 48 49 52 54 56 57 59 61 62 64 67 68 70 73 77 79 79 79 79 79 78 75 71 68 65 65 64 64 64 62 60 58 57 55 55 54 55 55 55 55 56 56 56 57 59 60 61
30 32 33 34 35 34 30 27 25 24 24 25 28 32 34 35 36 36 32 26 23 22 22 23 24 26 28 29 29 29 30 31 32 34 35 36 38 41 43 45 47 49 50 51 53 55 57 60 62 64 68 73 77 80 79 78 78 77 77 75 73 70 67 65 64 64 64 63 61 58 57 55 54 54 53 54 54 55 56 57 58 59 60 61 62
27 28 29 30 31 32 30 27 25 24 23 24 26 29 31 33 35 35 33 28 24 21 20 19 20 21 22 23 23 23 24 25 27 28 29 31 33 35 38 40 42 43 44 46 48 51 53 56 58 61 66 71 75 77 78 77 76 76 75 74 72 69 66 64 63 63 64 64 62 60 58 57 55 55 54 55 55 56 57 58 59 60 61 61 62
26 26 27 27 28 29 29 28 26 25 24 24 25 26 28 31 33 33 33 31 27 22 19 17 17 16 16 16 16 17 18 20 22 23 25 26 29 32 35 37 38 40 41 43 45 48 50 53 56 61 65 68 70 72 74 74 73 72 72 71 69 67 65 63 62 61 61 61 60 59 58 57 56 56 56 56 57 57 58 58 59 59 60 61 62
27 27 27 27 27 28 28 29 28 27 26 25 26 26 26 27 29 31 32 31 29 25 20 17 15 13 12 11 11 12 13 15 18 20 22 24 26 30 32 35 36 38 39 41 43 45 47 51 54 58 61 63 65 67 68 68 67 66 65 64 63 62 61 59 58 57 56 56 56 56 56 56 57 57 57 57 57 57 57 58 58 58 59 60 60
31 30 30 29 29 28 28 28 29 29 29 28 27 27 26 25 25 27 29 30 29 27 23 18 15 12 10 8 7 8 10 12 14 16 18 21 23 27 29 32 34 35 36 38 39 41 44 46 49 51 54 56 58 60 61 61 60 59 58 57 57 57 57 56 56 55 55 55 55 55 56 57 58 58 58 58 57 56 56 56 56 56 56 57 57
32 33 33 34 33 31 30 28 27 28 29 29 29 28 26 24 23 23 25 27 28 27 25 21 17 13 10 7 5 5 6 8 10 13 15 18 20 23 25 27 29 30 31 33 34 36 38 40 42 45 48 50 53 54 55 55 55 54 54 54 55 55 55 55 55 55 55 55 55 56 56 57 57 57 57 56 55 54 53 53 53 53 53 53 54
32 33 34 35 35 35 35 32 30 28 27 28 29 29 27 24 22 21 21 23 25 26 25 24 20 16 12 9 6 4 3 4 5 7 10 13 16 18 20 22 23 24 26 27 29 30 32 33 35 38 41 43 46 48 50 51 52 52 52 53 55 55 55 55 55 55 54 54 54 54 54 55 55 55 54 53 52 51 50 50 49 49 50 50 51
32 33 33 34 35 36 36 37 35 32 29 27 27 27 27 25 22 19 19 20 21 22 23 23 22 19 16 12 9 6 4 2 0 2 5 7 9 11 13 15 16 17 18 19 20 21 23 24 26 29 32 35 38 41 43 45 47 49 50 52 53 54 54 54 53 52 51 51 51 51 51 51 50 50 49 48 47 46 45 45 45 46 47 48 49
Wind_Direction
265 262 258 255 252 251 251 251 250 250 251 253 256 258 259 261 263 264 265 265 265 264 264 262 261 260 259 259 260 260 260 262 262 263 262 262 262 262 262 262 263 263 264 264 264 264 264 263 264 264 263 263 262 261 261 261 262 262 262 262 262 262 262 261 261 260 260 260 260 259 259 259 259 259 259 260 259 259 259 260 260 261 261 261 262
264 262 259 255 251 249 249 250 248 247 249 253 255 256 256 258 259 260 261 263 264 265 264 263 261 259 259 259 258 258 259 260 261 261 261 261 261 262 263 264 265 264 264 264 264 264 264 264 264 265 265 265 264 263 263 263 263 262 262 262 262 263 263 262 262 261 259 259 259 258 258 258 258 259 259 259 260 259 259 259 260 260 261 261 262
264 262 259 256 251 248 248 248 246 244 248 254 256 256 256 257 257 258 258 260 261 263 264 263 261 259 258 257 257 257 257 258 258 259 259 259 260 261 262 263 263 263 263 263 262 263 263 264 264 265 265 265 265 264 264 264 264 263 262 262 262 262 262 262 262 261 260 258 258 258 258 257 257 258 259 259 259 259 259 258 259 260 260 261 262
263 261 259 257 254 250 250 251 250 249 252 257 259 259 259 257 256 256 257 258 259 260 261 262 262 260 258 256 256 256 256 256 256 257 257 258 259 260 260 261 261 261 261 260 261 261 262 263 264 265 265 265 265 265 264 264 264 264 263 262 261 261 262 262 262 262 261 259 259 258 258 258 258 258 258 259 259 259 258 258 258 259 260 261 262
263 261 260 259 258 256 256 257 257 258 261 263 264 263 262 260 258 257 256 256 257 259 260 261 261 261 259 257 255 255 255 255 256 256 258 259 260 260 260 260 260 259 259 259 260 260 262 263 264 264 264 264 264 264 264 264 263 263 263 262 262 262 262 262 262 262 261 261 260 259 259 259 259 258 258 258 258 258 258 258 258 259 260 261 261
263 262 261 260 260 260 261 261 261 262 264 267 268 268 266 263 261 259 256 256 256 257 259 260 260 260 259 257 256 255 255 255 256 258 259 261 262 262 261 260 260 260 260 261 260 259 260 261 262 262 262 262 262 262 262 263 263 263 262 262 262 262 262 262 262 262 262 261 261 261 260 260 259 259 259 259 259 259 258 258 259 260 260 261 261
263 262 262 261 261 261 262 263 264 265 266 267 267 268 268 266 264 260 257 256 256 256 257 258 259 260 259 257 255 254 254 255 256 258 259 261 262 263 263 262 260 261 262 262 261 260 261 262 263 263 263 263 262 262 262 263 264 263 263 262 262 262 262 262 262 263 262 262 262 262 261 261 260 260 259 259 259 259 259 259 259 260 261 261 261
263 262 261 261 261 262 262 264 265 266 266 266 266 265 266 266 266 263 260 258 256 255 255 256 257 258 258 257 256 254 253 253 254 255 256 257 259 261 263 263 263 263 262 259 259 261 263 264 265 265 265 265 264 263 263 263 264 264 263 262 262 263 263 263 263 263 263 263 263 263 263 262 262 262 262 261 261 260 260 260 260 260 261 261 261
265 263 262 261 261 261 262 263 264 265 265 265 265 265 265 266 266 265 263 260 258 256 254 254 255 256 256 256 255 255 254 253 253 253 253 253 255 258 260 261 262 263 261 259 259 261 263 265 266 267 267 267 267 265 264 264 266 266 264 263 263 264 264 265 265 265 265 265 264 264 264 264 264 263 263 263 262 262 261 261 261 261 261 261 262
268 266 265 263 262 262 262 263 263 264 264 264 264 264 264 265 265 266 265 263 260 258 256 254 253 254 254 254 254 254 253 254 253 252 251 251 252 254 256 257 259 259 259 259 260 262 264 265 266 266 267 267 267 266 265 265 267 266 265 263 263 264 265 265 266 267 268 269 268 267 266 266 265 265 265 264 264 264 263 263 262 261 261 261 262
270 269 268 268 267 266 265 265 264 264 264 264 263 262 261 261 262 263 264 264 262 260 258 256 254 253 254 254 254 253 252 252 252 251 249 248 249 250 252 253 255 256 257 259 261 263 264 266 266 267 267 267 267 267 266 266 266 266 265 264 263 264 265 264 264 265 267 269 271 271 270 269 268 267 266 266 265 264 263 262 262 261 261 261 261
270 270 271 271 271 271 270 268 266 265 264 263 263 262 261 259 259 260 261 262 262 261 260 258 256 254 253 254 254 253 253 251 252 252 251 249 248 248 250 251 252 254 255 256 259 262 264 265 266 267 268 268 267 267 266 266 266 266 265 265 267 268 267 266 265 265 265 267 269 271 272 272 270 269 267 266 265 264 263 262 261 261 260 260 261
272 272 272 273 274 274 273 271 269 267 265 264 264 264 262 260 259 258 258 259 259 260 259 258 257 256 255 255 254 254 254 253 251 252 253 253 252 250 250 251 251 252 253 254 257 260 263 264 265 266 268 268 268 267 267 267 267 267 267 268 271 271 269 268 267 267 266 267 268 270 271 272 272 270 269 267 266 265 264 263 262 261 260 260 261
272 273 273 273 274 274 274 273 272 271 269 268 266 265 263 260 258 258 258 257 257 257 257 257 256 257 257 257 256 255 256 256 254 252 252 254 255 254 252 251 252 252 253 254 257 260 262 263 264 266 267 268 269 269 268 268 268 268 268 271 272 271 268 267 268 268 268 268 269 270 271 272 272 271 271 270 270 269 267 265 263 262 261 261 261
273 273 273 273 273 273 273 272 272 271 271 270 269 267 265 262 258 256 256 256 256 255 255 255 254 255 256 257 257 257 257 258 257 255 252 251 253 256 256 253 253 253 254 255 257 259 260 262 263 265 266 268 269 269 269 268 268 268 269 270 271 269 267 267 267 268 268 268 268 269 271 271 272 272 273 273 272 271 270 268 265 263 262 262 262
273 273 273 273 272 272 272 271 271 270 270 270 269 269 267 265 261 257 254 254 254 253 253 252 252 252 253 254 256 257 257 258 258 258 255 251 250 252 255 256 255 254 255 255 256 257 259 260 262 264 265 267 268 268 267 267 267 268 268 267 267 266 266 266 266 267 267 267 267 268 270 271 272 273 274 274 272 270 269 268 265 263 262 262 263
274 274 274 273 272 272 271 270 269 269 268 268 268 267 267 266 264 261 257 254 252 252 252 251 251 250 250 252 253 255 256 258 259 259 259 256 253 250 251 253 255 255 254 255 255 256 257 259 259 260 261 262 263 263 263 264 266 265 264 263 264 264 265 266 266 266 267 267 267 268 269 270 271 272 273 274 273 271 269 267 265 263 262 262 263
275 275 274 273 273 272 272 271 270 269 268 267 266 265 265 264 264 263 261 257 254 253 252 252 252 251 250 251 252 253 254 256 258 259 259 260 258 255 252 251 252 254 254 255 255 255 256 256 257 257 257 258 259 261 262 262 262 262 262 264 265 266 266 266 266 266 267 268 268 268 269 270 271 272 272 272 272 271 268 265 263 263 262 262 262
276 275 274 274 274 274 273 273 272 271 269 268 266 265 264 263 262 262 262 260 258 255 254 253 253 252 251 252 253 253 254 254 256 257 259 259 260 259 256 253 252 253 254 255 256 256 256 257 259 260 259 258 258 259 260 260 261 262 264 265 266 266 266 265 265 266 266 267 267 268 269 270 270 271 271 271 271 270 267 263 261 261 262 261 260
277 276 275 275 275 274 274 274 273 273 272 271 269 267 265 263 262 261 260 260 260 258 256 255 254 253 253 253 254 254 255 255 254 254 256 257 258 258 257 255 254 254 254 255 257 257 258 259 261 262 261 259 258 259 259 259 260 263 265 265 266 266 266 265 265 264 264 264 265 267 267 268 269 270 270 270 270 269 265 261 260 261 261 260 260
278 277 277 276 275 275 274 274 273 273 272 272 271 270 268 267 264 262 260 259 259 258 257 257 256 255 255 256 256 257 257 257 256 254 253 253 255 256 256 255 255 256 256 256 256 257 258 258 259 259 259 259 259 259 258 258 260 262 264 265 266 266 265 265 265 264 264 264 264 265 266 268 269 269 269 270 270 269 264 260 260 261 261 261 260
279 278 278 277 276 275 274 274 273 272 272 271 271 270 269 268 267 265 263 261 259 257 256 256 256 255 255 256 258 259 259 258 257 255 254 252 252 253 253 254 255 256 257 258 257 258 258 258 257 257 258 259 259 258 259 259 260 262 263 264 263 264 264 264 264 263 263 264 264 265 266 267 267 267 268 270 270 268 264 261 260 261 261 261 261
280 280 279 278 277 276 275 274 273 272 271 271 270 270 269 268 267 266 265 263 261 258 256 255 255 254 254 255 256 257 258 258 256 255 254 254 252 251 250 251 253 254 255 256 257 258 258 258 256 254 256 258 258 258 259 259 259 259 260 261 261 262 262 262 261 261 261 262 262 263 263 264 266 268 270 270 269 268 265 262 261 261 261 261 261
282 281 280 279 278 277 276 274 273 272 271 270 269 269 268 267 267 266 265 264 263 261 258 256 255 253 253 253 253 254 255 255 254 253 252 252 251 249 249 249 251 252 253 254 255 256 257 257 254 251 253 255 256 256 257 257 257 257 258 260 261 261 261 261 261 260 260 260 260 259 260 262 266 270 271 270 269 268 266 263 261 261 260 260 260
283 282 281 280 279 278 277 275 274 273 272 270 269 268 267 266 265 265 265 264 263 262 261 259 257 254 252 251 251 251 251 250 249 248 248 248 247 247 247 248 248 249 250 251 251 251 252 253 252 250 251 252 253 254 255 255 256 257 257 259 259 259 260 261 260 260 259 259 258 258 258 260 265 269 270 270 269 269 267 265 263 261 259 259 259
284 283 282 281 279 278 277 276 274 273 272 270 269 268 267 266 265 264 263 263 263 262 261 260 259 257 254 252 250 250 249 249 247 246 245 245 245 245 245 245 245 246 246 246 247 248 249 250 250 250 250 251 251 253 253 254 255 256 256 257 257 257 258 259 260 261 261 260 259 258 259 261 265 268 269 269 270 270 269 267 265 262 259 258 258
284 283 283 281 280 279 278 277 275 274 272 271 270 268 267 266 265 264 263 262 262 261 261 260 259 258 256 254 252 250 249 249 248 246 245 246 247 246 246 245 244 244 243 242 241 243 246 247 248 248 249 249 250 252 252 253 254 254 254 255 255 256 257 259 261 262 262 261 260 260 261 264 266 267 268 269 270 269 269 268 267 264 261 259 258
286 285 284 283 282 281 280 279 278 277 275 273 272 270 269 267 266 265 263 262 261 261 260 259 259 258 257 255 253 251 249 248 248 247 246 247 248 249 249 248 246 246 245 243 239 238 241 243 244 246 248 250 251 252 252 252 252 253 253 253 253 255 257 259 261 263 263 264 263 262 264 267 268 268 269 269 268 268 268 268 268 265 262 260 259
287 286 286 285 284 284 283 282 281 279 278 276 275 273 272 270 268 267 265 264 263 261 260 259 258 258 257 256 254 252 250 248 248 249 248 247 247 249 250 251 250 249 249 247 243 239 238 240 242 244 246 248 250 252 252 252 253 253 252 252 252 254 256 258 260 262 264 265 264 263 264 267 268 268 269 268 267 267 267 267 267 265 262 259 257
289 288 288 288 287 286 286 285 284 283 282 280 278 276 275 273 271 269 267 265 264 263 262 260 259 258 257 256 255 253 251 248 247 249 249 248 248 249 250 251 252 251 251 250 247 243 242 243 244 244 245 246 247 248 250 252 254 254 253 252 252 253 255 257 260 262 264 265 265 264 264 265 267 268 269 268 267 266 265 265 265 263 260 256 255
292 292 291 290 289 288 287 287 286 285 284 283 282 280 278 276 275 273 271 268 266 264 263 262 261 260 259 257 255 254 252 249 247 248 249 249 249 249 250 251 252 252 252 252 251 248 247 248 249 248 247 248 249 249 248 250 252 253 253 252 252 252 254 257 260 262 263 264 264 265 266 266 267 268 269 269 268 265 262 261 261 259 256 253 254
294 294 293 291 290 288 287 286 285 284 284 283 283 283 282 280 278 276 274 272 269 267 265 264 262 261 260 259 257 255 253 251 249 247 248 248 249 249 250 251 251 251 251 251 251 251 250 251 253 254 252 251 252 253 253 253 253 254 254 253 252 253 255 258 260 261 263 264 264 265 266 267 267 267 268 268 267 262 259 258 257 255 253 252 254
298 297 296 295 293 290 287 285 284 283 283 283 283 283 283 282 281 279 276 274 273 271 268 266 264 262 260 260 259 257 254 252 250 249 248 248 248 249 249 250 251 251 250 250 250 250 251 251 254 256 257 256 256 257 257 257 257 258 257 256 256 257 259 262 264 264 264 265 266 267 267 267 266 266 267 267 265 260 256 254 253 252 252 254 256
306 305 304 303 300 297 293 289 285 282 281 281 283 283 283 283 282 281 279 277 275 273 271 269 267 264 261 259 258 257 256 254 252 250 248 248 248 249 249 249 249 249 250 250 250 250 250 252 253 255 258 259 259 260 259 259 260 261 261 260 259 259 261 264 267 267 267 267 268 269 268 267 266 265 265 265 262 256 251 249 250 251 253 255 257
315 314 313 311 309 307 303 298 292 284 279 277 279 281 282 281 281 280 280 279 278 276 274 272 270 268 265 262 259 257 256 255 253 251 250 248 248 248 249 249 249 249 250 251 251 251 251 252 253 254 255 256 257 259 259 259 260 262 262 261 259 258 259 263 266 268 269 269 269 268 267 266 265 264 263 261 256 249 245 247 249 251 253 255 257
326 325 322 318 314 312 311 308 303 293 283 277 276 278 280 280 280 279 279 278 278 277 275 274 272 271 269 266 263 259 256 255 253 252 250 249 248 248 248 249 250 251 251 252 252 252 252 252 252 252 251 251 251 254 256 258 259 260 260 260 259 259 260 262 264 267 269 269 267 266 265 265 264 263 260 256 249 244 244 248 250 251 253 256 258
332 333 332 327 321 316 314 314 313 307 296 285 278 278 279 280 279 279 278 278 278 277 276 274 273 272 271 270 267 264 259 256 253 251 250 249 248 248 247 248 249 250 251 252 252 251 251 251 250 249 248 246 245 248 251 254 256 257 257 258 258 259 260 262 263 265 267 266 264 263 263 265 264 261 254 247 242 242 246 249 251 252 255 258 260
333 334 336 335 329 321 316 316 317 315 309 300 291 287 285 284 283 281 281 280 279 278 276 275 273 272 271 270 269 267 264 259 255 252 250 248 247 247 247 246 247 248 250 250 251 250 249 248 247 246 244 242 241 242 246 249 251 252 254 254 254 255 258 260 262 263 263 261 260 258 259 260 259 255 248 243 241 244 248 251 253 255 258 261 263
334 336 338 339 336 329 321 318 318 317 315 311 305 301 297 295 292 290 287 285 282 279 277 275 274 272 270 269 268 267 266 263 259 255 251 249 247 247 247 245 245 246 246 247 248 248 246 245 243 241 240 240 239 239 241 243 244 244 246 247 248 250 253 255 256 255 254 252 251 250 250 250 249 247 245 245 246 249 251 253 256 259 261 264 267
336 338 341 343 341 336 329 323 319 317 317 315 312 310 307 304 301 299 295 289 285 281 278 276 274 271 269 268 266 266 265 264 261 256 252 249 246 246 245 244 243 243 243 243 243 243 242 241 239 237 236 236 236 236 238 239 240 239 239 240 242 244 246 247 246 245 244 244 243 243 244 244 244 245 247 250 252 254 256 259 261 263 266 268 271
338 340 343 346 346 342 335 327 321 317 316 317 316 314 313 312 311 309 303 295 288 283 280 277 275 272 269 267 266 265 265 263 260 256 253 249 247 245 244 242 240 239 239 239 239 239 238 237 235 234 233 233 233 234 236 238 240 240 240 239 239 240 241 241 241 241 242 242 242 242 242 243 245 247 250 253 256 258 261 263 265 267 268 270 271
338 341 344 348 348 346 340 332 324 318 316 317 318 318 318 319 320 318 313 303 295 290 285 281 277 274 271 269 268 266 265 262 259 255 251 248 246 244 241 238 236 236 236 236 236 236 235 234 232 231 230 230 232 233 234 235 238 240 242 242 242 241 240 241 242 243 244 244 244 244 245 246 247 250 252 255 258 260 262 264 265 267 268 270 272
340 344 347 349 351 349 344 337 329 322 318 318 321 325 327 328 330 331 325 315 307 301 294 287 280 276 274 272 271 269 266 262 257 253 250 247 244 242 238 235 233 233 233 233 233 233 232 231 230 229 228 228 229 231 233 233 235 237 240 243 244 244 243 242 242 244 245 247 247 247 248 248 250 251 253 256 258 260 262 264 265 267 269 270 272
342 346 348 351 353 352 350 344 337 329 325 326 330 334 337 339 341 342 339 330 320 313 305 295 286 281 278 276 274 270 266 261 255 252 249 246 242 239 235 233 231 231 230 230 230 230 229 229 228 227 226 226 228 230 231 233 235 236 238 240 242 243 243 243 243 244 246 248 249 250 251 251 253 254 255 257 259 261 263 264 266 267 268 270 271
342 346 351 355 356 355 353 350 345 339 335 335 337 340 344 345 346 348 348 344 336 326 318 309 298 289 285 282 277 273 267 260 254 250 247 243 238 234 231 229 228 227 227 227 226 227 226 226 226 226 226 227 228 229 231 233 235 237 238 240 241 242 242 242 243 244 246 249 251 253 254 255 256 257 258 259 260 261 262 263 265 266 268 269 271
342 346 352 357 360 360 358 355 351 346 341 338 338 341 346 349 350 352 354 354 349 342 333 324 314 303 295 288 281 274 265 257 251 246 243 238 232 227 225 224 223 223 223 224 224 225 224 224 224 225 226 227 228 229 230 232 234 236 237 239 240 242 243 244 245 246 248 250 252 254 255 256 257 257 257 258 259 259 261 262 264 265 267 268 269
352 350 349 351 354 357 359 359 358 354 349 343 341 342 346 350 353 356 358 359 358 354 348 340 331 321 310 299 287 273 260 251 245 240 237 232 227 224 222 221 221 221 222 223 223 224 224 224 224 225 226 227 228 229 230 231 232 234 236 238 240 242 243 245 246 247 248 249 250 252 253 254 255 255 255 256 256 258 259 261 262 264 265 266 267
6 3 359 355 351 350 351 353 356 357 356 353 349 346 345 347 352 358 3 4 4 3 0 355 348 340 329 316 300 278 259 247 240 236 232 228 224 221 220 220 221 222 223 224 224 224 225 225 226 226 227 227 227 228 229 230 231 233 234 236 238 240 241 243 244 245 246 247 248 249 250 251 252 253 253 254 255 256 258 259 261 262 264 265 266
12 11 9 7 4 360 355 351 349 351 354 356 356 353 350 347 348 356 5 10 11 11 10 7 3 357 350 340 326 299 270 251 240 233 228 225 223 221 221 222 224 225 225 225 225 225 225 225 225 225 225 226 226 227 227 229 230 231 232 233 234 236 239 241 242 243 244 245 246 248 249 249 250 251 252 253 254 255 257 259 260 262 263 264 266
8 8 8 9 9 9 6 2 357 353 352 354 356 358 357 353 348 352 3 13 17 19 19 17 15 12 9 5 358 344 312 276 250 237 231 226 225 224 224 225 227 227 227 226 225 225 225 225 225 225 225 225 225 226 227 228 229 230 230 231 233 235 237 239 241 242 243 244 245 246 247 248 249 250 251 252 253 255 256 258 260 261 263 264 266
3 3 4 5 6 7 8 7 6 3 359 355 354 356 360 360 355 350 355 7 18 24 27 27 26 25 24 25 28 31 33 35 252 224 223 224 225 226 226 226 226 225 224 223 223 223 224 224 225 225 226 225 225 226 227 228 229 229 230 231 233 234 236 237 239 241 242 243 244 245 246 247 248 249 250 251 253 254 256 258 259 261 263 266 268
Height
5634 5635 5635 5635 5635 5635 5634 5634 5634 5633 5633 5633 5633 5633 5632 5633 5633 5633 5633 5633 5633 5633 5634 5634 5634 5635 5635 5636 5636 5637 5638 5639 5640 5639 5639 5640 5641 5641 5641 5641 5641 5642 5642 5643 5643 5643 5643 5643 5643 5643 5642 5642 5643 5643 5643 5644 5643 5644 5644 5644 5644 5644 5643 5643 5644 5646 5647 5646 5645 5646 5648 5648 5648 5649 5650 5650 5651 5652 5653 5653 5654 5653 5653 5653 5654
5624 5624 5624 5624 5624 5624 5624 5624 5623 5623 5623 5623 5624 5623 5623 5623 5623 5623 5623 5622 5622 5623 5623 5624 5624 5624 5625 5626 5626 5627 5628 5629 5630 5630 5630 5631 5631 5632 5632 5632 5632 5633 5634 5635 5635 5634 5634 5635 5635 5635 5634 5634 5635 5635 5635 5635 5635 5636 5636 5636 5636 5635 5634 5634 5634 5636 5638 5637 5636 5637 5638 5639 5639 5640 5641 5642 5643 5643 5644 5645 5645 5645 5644 5644 5645
5614 5614 5613 5613 5613 5613 5613 5613 5612 5612 5612 5613 5613 5613 5613 5613 5613 5613 5613 5612 5612 5612 5612 5613 5613 5614 5615 5615 5615 5616 5617 5618 5619 5620 5620 5621 5621 5622 5622 5622 5622 5623 5624 5625 5625 5624 5624 5625 5626 5626 5625 5625 5626 5627 5627 5627 5627 5627 5628 5627 5627 5626 5625 5625 5625 5626 5628 5629 5627 5627 5628 5629 5630 5631 5631 5633 5634 5635 5635 5636 5636 5636 5635 5635 5636
5604 5604 5603 5602 5602 5602 5602 5602 5602 5602 5602 5602 5602 5602 5602 5602 5602 5602 5602 5602 5602 5602 5602 5602 5602 5603 5604 5604 5604 5605 5605 5606 5607 5608 5609 5610 5610 5611 5611 5611 5612 5613 5615 5615 5615 5614 5615 5616 5617 5617 5616 5616 5617 5618 5618 5619 5618 5618 5618 5618 5617 5617 5616 5615 5616 5617 5619 5620 5619 5618 5619 5619 5620 5622 5622 5623 5625 5626 5626 5627 5628 5627 5626 5626 5627
5593 5593 5593 5592 5591 5591 5590 5590 5590 5590 5589 5589 5590 5590 5591 5591 5591 5591 5591 5591 5591 5591 5591 5591 5591 5592 5593 5593 5593 5593 5593 5594 5595 5597 5597 5598 5599 5600 5600 5600 5601 5603 5604 5605 5605 5605 5604 5605 5606 5607 5606 5606 5608 5609 5609 5609 5609 5608 5608 5608 5608 5607 5606 5606 5607 5607 5609 5611 5610 5609 5609 5610 5611 5612 5613 5613 5615 5616 5617 5618 5619 5619 5618 5617 5617
5581 5581 5581 5580 5580 5579 5577 5577 5577 5577 5576 5576 5576 5577 5578 5578 5578 5579 5579 5580 5580 5580 5580 5580 5580 5580 5581 5581 5581 5582 5582 5582 5583 5585 5585 5585 5586 5587 5588 5590 5591 5592 5594 5595 5595 5595 5594 5595 5595 5595 5595 5596 5599 5600 5599 5599 5598 5598 5598 5598 5598 5597 5597 5596 5597 5598 5598 5600 5600 5600 5600 5601 5601 5603 5604 5604 5606 5607 5608 5609 5610 5610 5609 5608 5608
5567 5567 5567 5567 5566 5565 5564 5563 5563 5563 5563 5562 5563 5563 5564 5564 5565 5566 5566 5568 5568 5568 5568 5568 5568 5568 5568 5569 5570 5570 5570 5571 5572 5573 5573 5573 5574 5574 5576 5578 5579 5581 5582 5583 5584 5584 5584 5585 5585 5585 5586 5587 5588 5589 5589 5588 5588 5588 5588 5588 5588 5587 5587 5587 5587 5588 5588 5589 5590 5590 5590 5590 5592 5593 5595 5595 5596 5598 5598 5599 5599 5600 5600 5599 5599
5552 5552 5552 5551 5551 5551 5550 5550 5549 5549 5549 5549 5550 5550 5551 5551 5551 5552 5553 5554 5555 5556 5556 5556 5556 5556 5556 5557 5557 5557 5558 5559 5560 5560 5560 5561 5561 5562 5563 5564 5566 5568 5569 5571 5571 5572 5574 5575 5575 5576 5577 5578 5578 5578 5578 5578 5578 5578 5578 5578 5578 5577 5578 5578 5578 5578 5579 5579 5579 5580 5580 5580 5582 5584 5585 5586 5586 5587 5588 5588 5589 5590 5590 5589 5589
5536 5536 5537 5537 5537 5536 5536 5535 5535 5535 5535 5536 5536 5536 5537 5537 5537 5538 5539 5539 5540 5542 5543 5543 5544 5544 5544 5545 5545 5546 5547 5548 5548 5548 5548 5548 5549 5549 5550 5551 5553 5555 5556 5557 5559 5560 5562 5564 5565 5566 5567 5567 5567 5567 5568 5568 5568 5568 5568 5568 5567 5567 5568 5569 5569 5569 5569 5569 5570 5570 5570 5571 5572 5573 5576 5577 5576 5577 5578 5578 5579 5580 5580 5580 5578
5519 5519 5520 5521 5522 5523 5523 5522 5521 5521 5522 5522 5523 5523 5523 5523 5523 5524 5524 5525 5526 5527 5528 5529 5530 5530 5531 5532 5533 5534 5535 5536 5535 5534 5535 5535 5536 5537 5538 5539 5540 5542 5543 5545 5546 5548 5550 5552 5555 5556 5555 5555 5556 5556 5558 5559 5558 5558 5558 5558 5558 5558 5559 5559 5559 5559 5559 5560 5560 5560 5560 5562 5562 5562 5565 5567 5567 5567 5569 5569 5569 5569 5570 5569 5567
5504 5503 5503 5504 5506 5507 5508 5509 5508 5508 5508 5509 5509 5510 5510 5510 5510 5510 5510 5510 5511 5512 5513 5514 5515 5516 5517 5519 5520 5521 5523 5523 5522 5521 5521 5522 5522 5524 5525 5525 5527 5529 5531 5533 5535 5536 5538 5540 5542 5543 5543 5544 5546 5546 5547 5549 5549 5548 5548 5548 5549 5549 5549 5549 5550 5550 5550 5551 5551 5551 5552 5553 5552 5552 5554 5557 5557 5558 5559 5559 5559 5559 5559 5559 5557
5490 5489 5488 5488 5489 5490 5491 5492 5493 5493 5493 5494 5495 5496 5496 5496 5496 5496 5496 5496 5497 5498 5499 5499 5500 5501 5502 5504 5506 5507 5509 5509 5508 5508 5509 5509 5509 5510 5511 5513 5514 5516 5519 5521 5523 5524 5526 5528 5530 5531 5532 5533 5534 5535 5537 5539 5539 5538 5538 5538 5539 5539 5539 5540 5540 5540 5541 5542 5541 5542 5543 5543 5542 5543 5544 5545 5547 5548 5549 5549 5550 5549 5549 5549 5547
5475 5474 5474 5473 5473 5473 5473 5474 5475 5476 5477 5478 5479 5481 5481 5481 5481 5481 5481 5482 5482 5483 5484 5485 5486 5486 5487 5489 5491 5493 5494 5495 5494 5495 5496 5497 5497 5497 5498 5500 5502 5504 5507 5510 5511 5513 5515 5517 5519 5520 5521 5522 5522 5525 5527 5528 5528 5528 5527 5528 5529 5529 5529 5529 5530 5531 5531 5532 5532 5533 5533 5533 5532 5533 5533 5534 5536 5538 5539 5540 5540 5540 5540 5539 5537
5459 5457 5457 5456 5456 5457 5457 5457 5457 5457 5458 5459 5461 5464 5465 5466 5466 5466 5466 5467 5467 5467 5469 5470 5471 5471 5472 5473 5476 5478 5479 5479 5480 5482 5483 5484 5484 5484 5485 5487 5490 5493 5496 5498 5500 5502 5504 5506 5508 5510 5510 5510 5511 5514 5517 5517 5516 5516 5516 5517 5518 5519 5519 5519 5519 5520 5521 5521 5522 5523 5523 5522 5522 5523 5523 5524 5527 5529 5530 5530 5530 5530 5530 5529 5528
5443 5441 5440 5440 5440 5440 5441 5441 5440 5440 5440 5441 5442 5444 5446 5449 5451 5451 5451 5452 5452 5452 5453 5454 5456 5457 5457 5458 5461 5463 5464 5464 5465 5467 5469 5471 5471 5471 5473 5476 5478 5482 5485 5487 5489 5491 5493 5495 5497 5499 5499 5499 5500 5503 5505 5504 5503 5503 5504 5506 5507 5508 5509 5509 5509 5510 5511 5511 5511 5512 5512 5512 5511 5512 5514 5515 5517 5518 5519 5520 5519 5520 5520 5519 5519
5427 5425 5423 5423 5423 5423 5423 5424 5424 5424 5424 5424 5425 5426 5427 5429 5432 5433 5435 5436 5437 5437 5438 5439 5440 5442 5443 5444 5446 5449 5451 5450 5450 5452 5454 5456 5457 5458 5461 5464 5467 5470 5473 5476 5478 5480 5482 5484 5486 5488 5488 5488 5490 5492 5493 5492 5491 5492 5493 5494 5496 5497 5498 5499 5499 5499 5499 5500 5501 5501 5502 5501 5501 5502 5504 5505 5507 5508 5509 5509 5509 5509 5509 5509 5509
5411 5408 5407 5406 5406 5405 5406 5406 5407 5407 5407 5407 5408 5408 5408 5410 5412 5414 5416 5419 5421 5422 5422 5424 5425 5427 5429 5430 5432 5435 5438 5437 5436 5438 5439 5441 5442 5445 5447 5450 5454 5458 5461 5464 5466 5468 5471 5473 5475 5476 5477 5478 5480 5480 5481 5480 5479 5481 5482 5482 5484 5486 5488 5488 5488 5488 5489 5489 5490 5490 5490 5490 5491 5492 5494 5495 5496 5498 5499 5500 5498 5498 5499 5500 5500
5396 5394 5392 5390 5389 5388 5388 5388 5389 5389 5389 5389 5389 5390 5391 5392 5393 5394 5396 5399 5403 5405 5406 5408 5410 5412 5414 5416 5418 5421 5425 5425 5424 5424 5426 5427 5428 5430 5433 5435 5439 5444 5447 5450 5452 5455 5458 5460 5461 5463 5466 5468 5469 5468 5469 5469 5468 5468 5470 5470 5471 5475 5477 5478 5477 5477 5478 5478 5478 5478 5478 5480 5481 5482 5483 5485 5486 5488 5489 5489 5487 5487 5488 5490 5490
5382 5381 5379 5377 5375 5374 5373 5372 5371 5371 5371 5371 5371 5372 5373 5375 5376 5377 5377 5379 5384 5387 5389 5391 5395 5397 5398 5400 5402 5406 5410 5413 5412 5411 5413 5414 5415 5417 5419 5421 5426 5430 5433 5435 5437 5439 5443 5445 5447 5450 5454 5456 5456 5456 5457 5457 5455 5456 5457 5457 5460 5464 5467 5466 5465 5466 5467 5467 5467 5467 5468 5469 5470 5471 5473 5474 5474 5477 5479 5478 5475 5476 5478 5479 5480
5368 5368 5367 5366 5364 5362 5360 5357 5356 5355 5354 5353 5353 5353 5355 5356 5358 5359 5360 5362 5364 5368 5371 5374 5377 5381 5383 5383 5386 5390 5394 5398 5399 5398 5399 5401 5402 5403 5405 5408 5413 5416 5418 5420 5423 5426 5429 5433 5435 5438 5440 5441 5442 5443 5445 5445 5444 5444 5443 5444 5450 5454 5454 5453 5454 5455 5456 5456 5456 5456 5456 5458 5459 5461 5463 5462 5462 5466 5469 5466 5465 5466 5467 5467 5469
5355 5354 5353 5353 5351 5349 5347 5344 5342 5341 5339 5338 5336 5336 5337 5338 5339 5340 5342 5344 5347 5350 5354 5356 5358 5363 5366 5367 5369 5373 5376 5380 5383 5385 5385 5387 5388 5389 5391 5396 5399 5401 5402 5406 5409 5413 5417 5420 5424 5426 5426 5427 5429 5430 5431 5432 5432 5431 5431 5434 5439 5440 5439 5441 5442 5442 5443 5445 5445 5445 5446 5448 5450 5452 5452 5451 5451 5454 5456 5456 5455 5455 5456 5457 5458
5341 5339 5338 5337 5336 5334 5332 5330 5328 5326 5325 5323 5320 5320 5322 5321 5321 5321 5323 5325 5329 5332 5336 5339 5341 5345 5349 5350 5352 5356 5358 5361 5365 5368 5369 5372 5373 5375 5378 5382 5384 5385 5388 5392 5396 5400 5404 5407 5411 5414 5413 5413 5415 5416 5417 5419 5418 5418 5421 5424 5426 5426 5428 5430 5430 5430 5432 5433 5433 5434 5436 5438 5440 5441 5441 5440 5441 5442 5444 5445 5444 5444 5445 5446 5448
5325 5323 5323 5321 5320 5318 5316 5315 5313 5311 5310 5308 5305 5304 5306 5306 5304 5304 5305 5306 5309 5313 5319 5323 5324 5327 5331 5334 5337 5340 5342 5344 5347 5351 5353 5355 5357 5360 5364 5368 5370 5370 5374 5379 5383 5386 5389 5393 5398 5401 5400 5400 5402 5403 5404 5405 5406 5408 5410 5412 5413 5415 5417 5418 5418 5419 5421 5422 5423 5425 5427 5428 5429 5429 5430 5430 5430 5431 5432 5433 5433 5433 5434 5435 5436
5309 5308 5307 5305 5303 5301 5299 5298 5297 5295 5294 5292 5288 5288 5290 5290 5288 5288 5289 5289 5290 5293 5300 5304 5307 5309 5314 5318 5322 5325 5328 5329 5331 5334 5337 5340 5343 5345 5348 5353 5355 5356 5360 5366 5370 5373 5376 5379 5383 5387 5387 5387 5389 5390 5391 5393 5395 5398 5400 5401 5402 5404 5407 5407 5408 5409 5410 5411 5414 5416 5417 5418 5418 5418 5418 5418 5418 5420 5421 5422 5423 5422 5423 5425 5425
5294 5292 5291 5288 5286 5283 5281 5280 5279 5278 5276 5274 5272 5272 5273 5273 5271 5272 5273 5273 5273 5276 5280 5284 5287 5291 5296 5301 5307 5312 5314 5314 5316 5320 5323 5326 5329 5331 5333 5336 5339 5342 5347 5353 5357 5360 5364 5366 5368 5372 5374 5375 5376 5378 5380 5383 5385 5386 5389 5390 5391 5394 5397 5397 5398 5399 5400 5402 5404 5404 5405 5406 5406 5405 5406 5406 5408 5410 5411 5411 5412 5412 5413 5414 5413
5278 5276 5274 5272 5269 5266 5263 5262 5261 5260 5258 5256 5254 5254 5255 5255 5255 5256 5257 5257 5258 5260 5262 5265 5268 5272 5277 5283 5289 5295 5298 5298 5300 5306 5310 5312 5316 5318 5318 5320 5323 5327 5333 5339 5343 5346 5350 5353 5355 5358 5360 5362 5364 5366 5369 5372 5373 5374 5377 5380 5381 5384 5387 5388 5388 5390 5391 5392 5392 5393 5394 5394 5394 5393 5394 5395 5397 5400 5400 5400 5401 5402 5403 5404 5403
5261 5260 5258 5255 5253 5250 5246 5245 5244 5243 5241 5240 5238 5237 5238 5238 5237 5238 5240 5241 5242 5243 5244 5247 5250 5253 5258 5264 5270 5275 5280 5282 5286 5292 5297 5299 5302 5303 5302 5305 5310 5313 5318 5325 5329 5332 5336 5339 5341 5343 5345 5348 5351 5354 5358 5360 5361 5363 5367 5370 5372 5374 5377 5377 5378 5380 5380 5380 5381 5381 5382 5383 5382 5382 5384 5385 5387 5388 5388 5388 5390 5391 5393 5393 5393
5247 5246 5243 5240 5237 5234 5231 5229 5227 5226 5225 5224 5222 5222 5223 5222 5220 5221 5224 5225 5225 5226 5228 5229 5231 5235 5239 5244 5250 5255 5260 5266 5272 5279 5282 5284 5285 5286 5288 5292 5297 5300 5304 5308 5314 5318 5322 5325 5328 5330 5332 5335 5339 5343 5347 5349 5351 5353 5357 5360 5363 5364 5366 5366 5367 5368 5369 5369 5370 5371 5372 5371 5371 5372 5373 5374 5375 5375 5376 5377 5378 5380 5381 5383 5383
5235 5232 5229 5226 5223 5220 5216 5214 5212 5210 5209 5208 5207 5207 5207 5207 5205 5206 5210 5211 5209 5209 5211 5212 5215 5219 5221 5225 5231 5236 5242 5251 5259 5262 5263 5265 5268 5272 5276 5280 5283 5286 5290 5293 5297 5303 5307 5310 5315 5319 5322 5324 5328 5332 5336 5338 5340 5343 5347 5350 5352 5354 5355 5355 5356 5356 5357 5358 5359 5360 5360 5360 5360 5362 5363 5363 5363 5364 5365 5366 5367 5368 5371 5372 5372
5224 5221 5217 5214 5211 5208 5204 5202 5200 5197 5195 5194 5193 5193 5193 5192 5191 5191 5194 5196 5195 5193 5193 5196 5200 5203 5203 5207 5213 5218 5224 5234 5242 5243 5245 5249 5253 5257 5262 5266 5268 5272 5275 5277 5282 5289 5295 5297 5302 5306 5310 5313 5317 5321 5325 5327 5329 5332 5336 5339 5342 5343 5343 5343 5344 5345 5346 5347 5348 5348 5349 5349 5350 5352 5352 5351 5352 5353 5354 5355 5356 5358 5360 5361 5360
5213 5211 5207 5204 5201 5198 5194 5192 5189 5186 5184 5182 5180 5180 5180 5181 5179 5178 5178 5180 5180 5179 5179 5181 5184 5187 5187 5191 5197 5202 5207 5216 5223 5225 5228 5233 5237 5241 5246 5251 5254 5257 5260 5262 5268 5277 5284 5286 5290 5294 5297 5302 5306 5310 5314 5317 5319 5322 5325 5327 5330 5332 5332 5332 5333 5334 5334 5335 5336 5337 5338 5339 5341 5341 5341 5340 5341 5343 5343 5344 5346 5348 5349 5350 5350
5204 5202 5198 5194 5191 5187 5184 5181 5179 5176 5174 5172 5170 5169 5169 5169 5170 5168 5166 5166 5166 5166 5166 5167 5169 5172 5173 5175 5179 5185 5191 5199 5205 5208 5211 5215 5220 5225 5230 5234 5238 5242 5244 5246 5255 5266 5273 5277 5280 5283 5286 5290 5294 5297 5301 5305 5308 5310 5312 5316 5319 5321 5321 5321 5321 5322 5323 5324 5326 5327 5329 5330 5330 5330 5330 5330 5331 5332 5333 5334 5336 5337 5339 5340 5341
5196 5193 5188 5185 5181 5177 5173 5171 5168 5166 5164 5162 5161 5160 5159 5159 5160 5159 5157 5156 5155 5154 5154 5155 5156 5157 5159 5160 5162 5167 5174 5181 5187 5191 5195 5198 5203 5209 5214 5217 5222 5225 5227 5231 5242 5255 5262 5267 5271 5273 5275 5279 5282 5285 5288 5292 5295 5297 5300 5303 5306 5307 5308 5308 5308 5310 5312 5315 5316 5318 5319 5319 5320 5320 5320 5320 5321 5321 5322 5324 5326 5328 5330 5331 5331
5188 5184 5180 5175 5172 5168 5164 5160 5158 5156 5154 5153 5152 5151 5150 5150 5150 5150 5149 5148 5146 5146 5145 5144 5144 5144 5145 5146 5148 5151 5157 5163 5169 5174 5179 5183 5187 5192 5196 5200 5204 5208 5210 5217 5231 5244 5251 5256 5261 5263 5265 5269 5271 5273 5276 5280 5283 5286 5288 5290 5292 5294 5296 5296 5296 5298 5302 5305 5306 5308 5308 5309 5310 5310 5310 5310 5311 5312 5313 5315 5318 5320 5321 5321 5321
5183 5178 5173 5168 5164 5159 5155 5150 5147 5145 5144 5144 5143 5143 5142 5142 5141 5140 5140 5139 5138 5138 5137 5135 5134 5133 5133 5134 5137 5139 5142 5147 5152 5157 5162 5166 5171 5176 5178 5180 5186 5194 5199 5206 5220 5231 5238 5244 5249 5252 5256 5258 5260 5262 5265 5269 5272 5276 5277 5278 5280 5283 5285 5285 5286 5288 5292 5294 5296 5298 5298 5299 5300 5300 5300 5301 5301 5303 5305 5307 5309 5311 5312 5312 5312
5178 5173 5168 5162 5157 5152 5148 5143 5139 5136 5134 5135 5135 5135 5135 5134 5133 5132 5132 5130 5130 5129 5129 5128 5127 5125 5124 5125 5126 5128 5130 5133 5137 5141 5146 5152 5157 5160 5160 5164 5174 5183 5188 5195 5206 5217 5224 5229 5235 5240 5244 5248 5250 5252 5254 5257 5262 5265 5266 5267 5270 5272 5274 5275 5277 5280 5282 5285 5286 5288 5289 5290 5291 5291 5291 5291 5293 5294 5297 5299 5300 5302 5303 5303 5304
5174 5169 5163 5157 5151 5146 5142 5137 5133 5130 5128 5128 5128 5128 5128 5127 5126 5125 5124 5123 5122 5121 5120 5119 5119 5117 5116 5116 5116 5117 5119 5122 5124 5127 5132 5138 5143 5144 5146 5154 5165 5172 5175 5182 5193 5202 5209 5216 5222 5227 5232 5237 5241 5243 5244 5247 5250 5253 5255 5257 5260 5262 5264 5266 5269 5272 5274 5276 5277 5278 5280 5281 5281 5282 5282 5283 5284 5286 5289 5290 5292 5293 5294 5294 5294
5170 5165 5159 5152 5146 5141 5137 5133 5130 5126 5124 5123 5122 5122 5121 5120 5119 5118 5117 5116 5115 5113 5112 5111 5110 5109 5108 5107 5107 5108 5109 5111 5113 5116 5120 5125 5129 5130 5135 5146 5156 5160 5164 5171 5179 5187 5196 5203 5209 5214 5220 5226 5230 5233 5235 5237 5239 5241 5244 5247 5250 5252 5254 5258 5261 5264 5266 5267 5268 5269 5270 5271 5273 5274 5275 5276 5277 5278 5280 5282 5283 5284 5284 5284 5284
5167 5161 5155 5149 5142 5136 5132 5130 5127 5124 5122 5120 5119 5118 5117 5115 5114 5112 5110 5108 5107 5105 5103 5102 5102 5101 5100 5099 5099 5099 5100 5101 5104 5107 5109 5113 5117 5118 5124 5135 5143 5148 5154 5160 5166 5173 5182 5190 5196 5202 5208 5214 5218 5222 5225 5227 5228 5231 5234 5236 5239 5242 5247 5250 5253 5255 5256 5257 5259 5260 5261 5263 5264 5266 5267 5269 5270 5271 5272 5273 5274 5274 5275 5274 5274
5165 5159 5153 5147 5140 5134 5130 5127 5125 5123 5121 5119 5117 5115 5113 5111 5109 5106 5102 5099 5097 5095 5094 5093 5092 5092 5092 5091 5091 5092 5092 5093 5096 5098 5100 5103 5106 5108 5114 5124 5132 5137 5141 5146 5152 5160 5169 5176 5183 5190 5196 5202 5207 5211 5213 5214 5216 5220 5223 5226 5230 5234 5238 5241 5243 5245 5247 5248 5249 5251 5252 5253 5255 5256 5258 5260 5262 5263 5264 5265 5265 5264 5265 5265 5264
5163 5157 5151 5145 5138 5133 5128 5125 5123 5121 5119 5117 5115 5113 5110 5107 5103 5099 5094 5090 5088 5086 5085 5084 5084 5084 5084 5084 5084 5084 5085 5086 5087 5089 5092 5095 5097 5100 5106 5114 5121 5125 5129 5134 5140 5148 5156 5165 5173 5179 5184 5190 5195 5197 5197 5200 5205 5210 5214 5217 5221 5225 5228 5231 5233 5236 5238 5239 5241 5242 5243 5244 5245 5246 5248 5250 5252 5254 5255 5255 5255 5255 5255 5255 5255
5161 5156 5150 5144 5138 5133 5128 5125 5122 5120 5118 5116 5113 5110 5107 5102 5097 5092 5087 5083 5081 5080 5078 5078 5077 5077 5077 5077 5077 5077 5078 5079 5080 5082 5085 5087 5090 5093 5099 5105 5109 5113 5118 5124 5131 5138 5146 5154 5161 5166 5173 5179 5181 5181 5183 5188 5195 5200 5204 5209 5213 5216 5219 5221 5224 5227 5229 5231 5232 5233 5234 5235 5236 5237 5238 5240 5242 5244 5244 5245 5245 5245 5245 5245 5244
5159 5154 5149 5143 5138 5133 5128 5125 5122 5120 5117 5115 5112 5108 5104 5099 5094 5088 5083 5079 5077 5075 5074 5073 5072 5072 5071 5071 5072 5072 5072 5073 5074 5076 5079 5081 5084 5087 5091 5096 5100 5105 5110 5116 5123 5129 5136 5142 5148 5154 5160 5164 5164 5165 5171 5179 5185 5190 5195 5200 5204 5207 5209 5212 5214 5217 5220 5222 5224 5225 5225 5226 5227 5228 5230 5231 5232 5233 5234 5235 5235 5235 5235 5234 5234
5157 5152 5148 5143 5138 5133 5128 5125 5122 5119 5116 5114 5110 5107 5102 5098 5092 5087 5081 5077 5075 5072 5071 5070 5069 5068 5067 5067 5067 5067 5068 5068 5069 5071 5074 5076 5079 5082 5086 5090 5094 5099 5104 5110 5115 5120 5126 5131 5137 5142 5146 5148 5149 5155 5163 5171 5176 5182 5187 5192 5195 5198 5201 5203 5205 5208 5210 5212 5215 5216 5217 5218 5219 5220 5221 5222 5223 5223 5224 5225 5225 5225 5224 5224 5223
5155 5151 5147 5142 5138 5133 5129 5125 5122 5119 5116 5112 5109 5106 5101 5097 5092 5087 5081 5077 5073 5071 5069 5067 5066 5065 5064 5063 5063 5063 5064 5065 5066 5068 5070 5073 5075 5078 5081 5085 5089 5094 5098 5103 5107 5112 5116 5121 5126 5130 5133 5136 5142 5150 5157 5164 5169 5174 5179 5183 5186 5189 5191 5194 5196 5198 5200 5203 5206 5207 5208 5210 5211 5212 5212 5213 5213 5214 5214 5214 5215 5214 5214 5213 5213
5154 5150 5146 5142 5138 5134 5130 5126 5122 5119 5115 5112 5108 5105 5101 5097 5092 5087 5082 5077 5073 5070 5068 5066 5064 5063 5062 5061 5061 5061 5062 5062 5064 5065 5067 5070 5072 5075 5078 5081 5085 5089 5093 5097 5100 5104 5109 5113 5116 5120 5124 5130 5137 5144 5150 5156 5162 5166 5170 5174 5177 5180 5183 5186 5188 5190 5192 5195 5196 5198 5199 5201 5202 5203 5204 5204 5204 5205 5204 5204 5204 5204 5204 5203 5204
5152 5149 5145 5141 5138 5134 5130 5126 5122 5119 5115 5111 5108 5104 5100 5097 5093 5088 5084 5079 5075 5071 5068 5066 5064 5062 5061 5060 5060 5060 5060 5061 5062 5064 5065 5068 5070 5072 5075 5078 5081 5085 5088 5092 5096 5099 5103 5106 5110 5115 5120 5126 5132 5138 5144 5149 5154 5158 5162 5166 5169 5172 5175 5178 5181 5183 5185 5186 5187 5188 5190 5192 5193 5194 5195 5195 5195 5195 5195 5194 5195 5195 5194 5194 5195
5151 5148 5144 5140 5137 5133 5130 5126 5123 5119 5115 5112 5108 5104 5100 5097 5093 5090 5086 5081 5077 5073 5070 5067 5065 5063 5062 5061 5060 5060 5060 5061 5062 5063 5065 5067 5069 5072 5074 5077 5079 5082 5086 5089 5093 5096 5100 5103 5108 5112 5117 5122 5127 5132 5138 5143 5147 5151 5155 5158 5161 5164 5167 5170 5172 5175 5176 5177 5178 5180 5181 5183 5184 5185 5186 5186 5186 5186 5186 5186 5186 5186 5186 5186 5186
5152 5148 5144 5140 5136 5132 5129 5125 5122 5119 5116 5112 5108 5105 5101 5097 5094 5091 5087 5084 5080 5076 5072 5069 5066 5065 5063 5062 5061 5061 5062 5062 5063 5064 5066 5068 5070 5072 5075 5077 5079 5082 5085 5088 5091 5095 5098 5102 5106 5110 5114 5118 5123 5127 5132 5136 5140 5143 5147 5150 5153 5156 5159 5162 5164 5166 5168 5169 5170 5172 5173 5174 5176 5177 5177 5178 5178 5178 5178 5177 5178 5178 5178 5178 5178
5152 5149 5145 5141 5137 5133 5129 5125 5122 5118 5115 5112 5109 5106 5102 5098 5095 5092 5089 5086 5082 5079 5075 5072 5069 5067 5065 5064 5063 5063 5063 5064 5065 5066 5068 5069 5071 5073 5076 5078 5080 5083 5085 5088 5091 5094 5097 5100 5103 5107 5110 5114 5118 5122 5126 5129 5133 5136 5140 5143 5146 5149 5152 5154 5156 5158 5160 5162 5163 5164 5165 5166 5168 5169 5169 5170 5170 5170 5170 5170 5170 5171 5171 5171 5171
5153 5149 5145 5142 5138 5134 5130 5126 5122 5118 5115 5112 5109 5106 5103 5100 5097 5094 5091 5088 5085 5082 5079 5076 5073 5071 5069 5067 5066 5066 5066 5066 5067 5068 5069 5071 5072 5074 5076 5078 5081 5083 5085 5088 5091 5093 5096 5099 5102 5105 5108 5111 5114 5117 5121 5124 5127 5130 5134 5137 5140 5143 5145 5147 5150 5151 5153 5155 5156 5156 5158 5159 5160 5161 5162 5162 5163 5163 5163 5163 5164 5164 5164 5164 5164